UVA9237 MYBS-MYGF

Flight info

Callsign UVA9237
Flight time N/A
Altitude 5000
Route ZFP
Aircraft DC3/M-SDF/S

Departure

Time 2026-05-04 03:03
Airport South Bimini Airport (MYBS)

Arrival

Time N/A
Airport Grand Bahama International Airport (MYGF)
Time Latitude Longitude Altitude Speed Heading
2026-05-04 02:49 25.70122 -79.27184 18 ft 0 kts 112°
2026-05-04 02:55 25.70121 -79.27183 18 ft 1 kts 113°
2026-05-04 02:56 25.70096 -79.27165 20 ft 8 kts 143°
2026-05-04 02:56 25.70083 -79.27095 18 ft 10 kts 90°
2026-05-04 02:56 25.70082 -79.27036 18 ft 4 kts 137°
2026-05-04 02:56 25.70044 -79.27034 17 ft 10 kts 185°
2026-05-04 02:57 25.69995 -79.26967 16 ft 15 kts 89°
2026-05-04 02:57 25.69997 -79.26839 17 ft 18 kts 89°
2026-05-04 02:57 25.69998 -79.26692 16 ft 20 kts 89°
2026-05-04 02:57 25.69999 -79.26527 15 ft 22 kts 90°
2026-05-04 02:58 25.69998 -79.26369 17 ft 20 kts 91°
2026-05-04 02:58 25.69996 -79.26221 18 ft 19 kts 90°
2026-05-04 02:58 25.69995 -79.26074 18 ft 19 kts 91°
2026-05-04 02:58 25.69993 -79.25930 19 ft 18 kts 89°
2026-05-04 02:59 25.69991 -79.25803 20 ft 14 kts 98°
2026-05-04 02:59 25.69984 -79.25731 19 ft 5 kts 348°
2026-05-04 02:59 25.69997 -79.25748 19 ft 0 kts 269°
2026-05-04 03:01 25.69997 -79.25751 19 ft 5 kts 269°
2026-05-04 03:01 25.69994 -79.25973 19 ft 51 kts 270°
2026-05-04 03:02 25.69997 -79.26485 46 ft 77 kts 269°
2026-05-04 03:02 25.69979 -79.27183 90 ft 102 kts 270°
2026-05-04 03:02 25.70433 -79.27803 280 ft 113 kts 330°
2026-05-04 03:02 25.71183 -79.28049 508 ft 117 kts 352°
2026-05-04 03:03 25.72007 -79.28000 730 ft 121 kts 20°
2026-05-04 03:03 25.72765 -79.27517 879 ft 131 kts 34°
2026-05-04 03:03 25.73576 -79.26938 966 ft 142 kts 33°
2026-05-04 03:03 25.74407 -79.26358 1167 ft 143 kts 33°
2026-05-04 03:04 25.75256 -79.25780 1383 ft 142 kts 32°
2026-05-04 03:04 25.76103 -79.25217 1621 ft 141 kts 32°
2026-05-04 03:04 25.76945 -79.24669 1858 ft 139 kts 31°
2026-05-04 03:04 25.77778 -79.24138 2076 ft 137 kts 30°
2026-05-04 03:05 25.78599 -79.23623 2266 ft 137 kts 30°
2026-05-04 03:05 25.79436 -79.23112 2461 ft 137 kts 29°
2026-05-04 03:05 25.80274 -79.22612 2659 ft 136 kts 28°
2026-05-04 03:05 25.81104 -79.22122 2849 ft 136 kts 27°
2026-05-04 03:06 25.81948 -79.21635 3059 ft 136 kts 27°
2026-05-04 03:06 25.82793 -79.21156 3249 ft 137 kts 25°
2026-05-04 03:06 25.83651 -79.20680 3433 ft 137 kts 25°
2026-05-04 03:06 25.84493 -79.20207 3606 ft 137 kts 25°
2026-05-04 03:07 25.85342 -79.19708 3796 ft 137 kts 26°
2026-05-04 03:07 25.86181 -79.19198 3979 ft 138 kts 27°
2026-05-04 03:07 25.87006 -79.18678 4167 ft 138 kts 28°
2026-05-04 03:07 25.87824 -79.18110 4360 ft 138 kts 32°
2026-05-04 03:08 25.88597 -79.17475 4542 ft 138 kts 37°
2026-05-04 03:08 25.89326 -79.16793 4720 ft 139 kts 39°
2026-05-04 03:08 25.90060 -79.16081 4900 ft 140 kts 39°
2026-05-04 03:08 25.90778 -79.15368 5070 ft 140 kts 39°
2026-05-04 03:09 25.91507 -79.14644 5231 ft 140 kts 39°
2026-05-04 03:09 25.92237 -79.13920 5402 ft 140 kts 39°
2026-05-04 03:09 25.92975 -79.13186 5520 ft 146 kts 39°
2026-05-04 03:09 25.93759 -79.12408 5561 ft 159 kts 39°
2026-05-04 03:10 25.94625 -79.11555 5561 ft 171 kts 39°
2026-05-04 03:10 25.95531 -79.10672 5601 ft 177 kts 39°
2026-05-04 03:10 25.96488 -79.09757 5584 ft 185 kts 38°
2026-05-04 03:10 25.97489 -79.08814 5564 ft 190 kts 38°
2026-05-04 03:11 25.98522 -79.07862 5544 ft 194 kts 37°
2026-05-04 03:11 25.99558 -79.06916 5531 ft 196 kts 37°
2026-05-04 03:11 26.00627 -79.05957 5515 ft 198 kts 36°
2026-05-04 03:11 26.01709 -79.05003 5491 ft 199 kts 36°
2026-05-04 03:12 26.02805 -79.04053 5467 ft 200 kts 36°
2026-05-04 03:12 26.03920 -79.03105 5437 ft 201 kts 35°
2026-05-04 03:12 26.05029 -79.02181 5402 ft 202 kts 34°
2026-05-04 03:12 26.06168 -79.01254 5370 ft 203 kts 34°
2026-05-04 03:13 26.07318 -79.00343 5333 ft 203 kts 33°
2026-05-04 03:13 26.08481 -78.99445 5295 ft 204 kts 32°
2026-05-04 03:13 26.09664 -78.98556 5256 ft 204 kts 31°
2026-05-04 03:13 26.10840 -78.97701 5205 ft 204 kts 30°
2026-05-04 03:14 26.12047 -78.96852 5155 ft 204 kts 29°
2026-05-04 03:14 26.13265 -78.96025 5106 ft 205 kts 28°
2026-05-04 03:14 26.14483 -78.95228 5051 ft 205 kts 27°
2026-05-04 03:14 26.15725 -78.94435 5004 ft 205 kts 28°
2026-05-04 03:15 26.16933 -78.93579 4946 ft 205 kts 32°
2026-05-04 03:15 26.18069 -78.92621 4828 ft 204 kts 37°
2026-05-04 03:15 26.19105 -78.91589 4688 ft 201 kts 42°
2026-05-04 03:15 26.20086 -78.90487 4539 ft 199 kts 45°
2026-05-04 03:16 26.21045 -78.89377 4400 ft 198 kts 45°
2026-05-04 03:16 26.21995 -78.88262 4234 ft 197 kts 45°
2026-05-04 03:16 26.22933 -78.87154 4081 ft 196 kts 45°
2026-05-04 03:16 26.23887 -78.86096 3935 ft 195 kts 43°
2026-05-04 03:17 26.24883 -78.85072 3789 ft 193 kts 41°
2026-05-04 03:17 26.25875 -78.84128 3578 ft 181 kts 39°
2026-05-04 03:17 26.26875 -78.83339 3329 ft 176 kts 30°
2026-05-04 03:17 26.27965 -78.82748 3058 ft 172 kts 23°
2026-05-04 03:18 26.29052 -78.82225 2822 ft 170 kts 22°
2026-05-04 03:18 26.30120 -78.81663 2580 ft 169 kts 31°
2026-05-04 03:18 26.31034 -78.80858 2331 ft 166 kts 45°
2026-05-04 03:18 26.31688 -78.79822 2002 ft 167 kts 69°
2026-05-04 03:19 26.31841 -78.78470 1532 ft 186 kts 98°
2026-05-04 03:19 26.31396 -78.77071 1138 ft 197 kts 118°
2026-05-04 03:19 26.30675 -78.75789 750 ft 191 kts 129°
2026-05-04 03:19 26.29849 -78.74791 774 ft 163 kts 139°
2026-05-04 03:20 26.28963 -78.74044 871 ft 158 kts 148°
2026-05-04 03:20 26.27991 -78.73501 960 ft 154 kts 158°
2026-05-04 03:20 26.27149 -78.72778 1035 ft 157 kts 127°
2026-05-04 03:20 26.26847 -78.71612 1139 ft 161 kts 90°
2026-05-04 03:21 26.27253 -78.70469 1257 ft 168 kts 49°
2026-05-04 03:21 26.28304 -78.69928 1401 ft 172 kts
2026-05-04 03:21 26.29376 -78.70447 1625 ft 172 kts 313°
2026-05-04 03:21 26.29778 -78.71188 1737 ft 167 kts 290°